[[{"header":{"parameterUnit":"m.s-1","parameterCategory":1,"la1":30.2991,"la2":30.254,"lo1":-89.0895,"lo2":-89.0444,"dy":0.0017,"dx":0.0017,"nx":28,"ny":28,"refTime":"2023-09-26T21:00:00:Z","depth":0,"parameterNumber":2,"parameterNumberName":"U-component_of_WINDS"},"data":[0,0,0,0,0,0,0,0,0,0,0,0,0,0,0,0,0,0,0,0,0,0,0,0,0,0,0,0,0,0,0,0,0,0,0,0,0,0,0,0,0,0,0,0,0,0,0,0,0,0,0,0,0,0,0,0,0,0,-3.1625,-3.1624,0,-3.1541,-3.154,-3.1539,-3.1424,-3.1422,-3.142,-3.1418,-3.133,-3.1329,-3.1329,0,0,0,0,0,0,0,0,0,0,0,0,0,-3.1686,-3.1686,-3.1625,-3.1624,-3.1623,-3.1541,-3.154,-3.1538,-3.1424,-3.1422,-3.142,-3.1417,-3.133,-3.1329,-3.1329,0,0,0,0,0,0,0,0,0,0,0,0,0,-3.1637,-3.1686,-3.1625,-3.1556,-3.1549,-3.1541,-3.154,-3.1538,-3.1425,-3.1422,-3.1419,-3.1416,-3.133,-3.133,-3.1329,-3.1381,0,0,-3.1326,-3.1326,0,0,0,0,0,0,0,0,-3.164,-3.1635,-3.1567,-3.1561,-3.1553,-3.149,-3.1529,-3.1485,-3.1425,-3.1472,-3.1418,-3.1415,-3.1385,-3.138,-3.137,-3.1377,-3.1373,-3.1326,-3.1326,-3.1325,-3.1325,0,0,0,0,0,0,0,-3.1643,-3.1637,-3.1591,-3.1566,-3.1558,-3.1529,-3.1519,-3.152,-3.1446,-3.1468,-3.1459,-3.1451,-3.1381,-3.1371,-3.1367,-3.1372,-3.1326,-3.1325,-3.1325,-3.1324,-3.1418,-3.1421,0,0,0,0,0,0,-3.1657,-3.1641,-3.1594,-3.1589,-3.159,-3.153,-3.1519,-3.1513,-3.1445,-3.1432,-3.1453,-3.1446,-3.1374,-3.1368,-3.1364,-3.1421,-3.1325,-3.1324,-3.1324,-3.1415,-3.1419,-3.1422,0,0,0,0,0,0,-3.1659,-3.1654,-3.1598,-3.1613,-3.1603,-3.1532,-3.1527,-3.1513,-3.1503,-3.1435,-3.1421,-3.1457,-3.1372,-3.1365,-3.1378,-3.1417,-3.1324,-3.1323,-3.1412,-3.1416,-3.142,-3.1537,0,0,0,0,0,0,-3.1661,-3.1655,-3.1675,-3.1614,-3.1603,-3.1614,-3.1529,-3.1513,-3.1502,-3.1492,-3.1435,-3.1422,-3.1369,-3.138,-3.1377,-3.1414,-3.1323,-3.1408,-3.1414,-3.1419,-3.1529,-3.1545,-3.1558,0,0,0,0,0,-3.1664,-3.171,-3.1676,-3.1671,-3.1626,-3.1616,-3.161,-3.1548,-3.1506,-3.1525,-3.1481,-3.1424,-3.1413,-3.1382,-3.1378,-3.1415,-3.1405,-3.1412,-3.1419,-3.1523,-3.1542,-3.1558,0,0,0,0,0,0,-3.1776,-3.1701,-3.1662,-3.1691,-3.1661,-3.1597,-3.1619,-3.157,-3.1551,-3.1542,-3.1465,-3.1453,-3.1476,-3.1446,-3.1414,-3.1463,-3.1401,-3.1407,-3.1481,-3.1499,-3.1513,-3.152,-3.1322,0,0,0,0,0,-3.1805,-3.1804,-3.1738,-3.1769,-3.1756,-3.1691,-3.1684,-3.1639,-3.1605,-3.1591,-3.1548,-3.1517,-3.1506,-3.1501,-3.1487,-3.1525,-3.1511,-3.1548,-3.1563,-3.1575,-3.1581,-3.16,-3.1616,-3.1444,-3.1444,-3.1444,0,0,-3.1863,-3.1821,-3.1825,-3.1791,-3.1762,-3.1763,-3.1681,-3.1684,-3.1684,-3.1591,-3.1602,-3.1569,-3.1529,-3.1555,-3.1564,-3.1531,-3.1626,-3.1583,-3.1594,-3.1593,-3.1609,-3.1625,-3.1639,-3.1449,-3.1448,-3.1447,0,0,-3.1969,-3.1938,-3.1961,-3.1934,-3.1893,-3.1849,-3.1855,-3.1799,-3.1774,-3.1783,-3.1714,-3.1712,-3.1695,-3.167,-3.1655,-3.1754,-3.1701,-3.1751,-3.1827,-3.1846,-3.1859,-3.1871,-3.1907,-3.1921,-3.1758,-3.1758,-3.1758,0,-3.2046,-3.2045,-3.1979,-3.1987,-3.1975,-3.1892,-3.1915,-3.1892,-3.1849,-3.1841,-3.1805,-3.1783,-3.175,-3.177,-3.1794,-3.1784,-3.1789,-3.1757,-3.1863,-3.1874,-3.1884,-3.1917,-3.1931,-3.1764,-3.1764,-3.1763,-3.1762,0,-3.2143,-3.2143,-3.2167,-3.2128,-3.2117,-3.2133,-3.2069,-3.2067,-3.2023,-3.1983,-3.1994,-3.1952,-3.1929,-3.193,-3.1887,-3.1944,-3.1925,-3.1877,-3.1813,-3.1908,-3.1938,-3.195,-3.1774,-3.1771,-3.1769,-3.1768,0,0,-3.2317,-3.2242,-3.2252,-3.2234,-3.2183,-3.2181,-3.2194,-3.2172,-3.2172,-3.2145,-3.2153,-3.2142,-3.2098,-3.2081,-3.2034,-3.2051,-3.2133,-3.2001,-3.1999,-3.2028,-3.2194,-3.2231,-3.2247,-3.2098,-3.21,-3.2102,-3.2198,0,-3.2414,-3.2432,-3.2373,-3.2406,-3.2405,-3.2328,-3.2338,-3.2308,-3.2272,-3.2266,-3.2225,-3.2219,-3.216,-3.215,-3.2163,-3.2121,-3.2166,-3.2112,-3.2106,-3.2106,-3.2119,-3.2263,-3.2301,-3.2394,-3.2209,-3.2211,-3.2213,0,-3.2529,-3.251,-3.2543,-3.2491,-3.2489,-3.25,-3.2476,-3.2471,-3.2436,-3.2408,-3.239,-3.2337,-3.2345,-3.2284,-3.2295,-3.2261,-3.2254,-3.2233,-3.2235,-3.2232,-3.2166,-3.2265,-3.2422,-3.2437,-3.223,-3.2229,-3.2228,0,-3.2655,-3.2636,-3.2654,-3.264,-3.258,-3.259,-3.2565,-3.2527,-3.2518,-3.2497,-3.249,-3.2471,-3.246,-3.2446,-3.2388,-3.2349,-3.2407,-3.234,-3.2384,-3.2386,-3.24,-3.24,-3.2559,-3.2395,-3.2395,-3.2395,-3.2394,0,-3.2769,-3.2793,-3.2709,-3.272,-3.2745,-3.2677,-3.2703,-3.267,-3.2637,-3.264,-3.2571,-3.2576,-3.2499,-3.2495,-3.245,-3.2467,-3.2462,-3.244,-3.2428,-3.2447,-3.245,-3.2442,-3.2434,-3.2398,-3.2397,-3.2397,-3.2396,0,-3.2913,-3.2858,-3.2872,-3.2815,-3.2801,-3.2821,-3.2772,-3.278,-3.2739,-3.2744,-3.2742,-3.2678,-3.267,-3.2611,-3.259,-3.2559,-3.2593,-3.2568,-3.2606,-3.2598,-3.2645,-3.2642,-3.2805,-3.2824,-3.2648,-3.265,-3.2651,0,-3.299,-3.3007,-3.2951,-3.2949,-3.2928,-3.2925,-3.2916,-3.285,-3.2844,-3.2805,-3.2818,-3.2805,-3.2791,-3.2782,-3.2733,-3.2717,-3.2691,-3.2749,-3.2688,-3.2707,-3.2693,-3.2693,-3.2694,-3.2763,-3.2765,-3.2767,-3.2768,0,-3.3134,-3.3106,-3.3096,-3.3077,-3.3069,-3.3051,-3.3028,-3.303,-3.2957,-3.2954,-3.2945,-3.2934,-3.2913,-3.2901,-3.2876,-3.285,-3.2798,-3.2788,-3.2798,-3.2817,-3.2839,-3.2829,-3.2642,-3.2785,-3.2783,-3.2782,-3.2781,-3.278,-3.3247,-3.3258,-3.3222,-3.3213,-3.319,-3.317,-3.3176,-3.3136,-3.3128,-3.3107,-3.3068,-3.3066,-3.303,-3.2992,-3.297,-3.2967,-3.2936,-3.295,-3.2953,-3.2958,-3.2968,-3.2839,-3.2963,-3.2962,-3.2961,-3.2961,-3.2961,0,-3.3387,-3.336,-3.3353,-3.3324,-3.3318,-3.327,-3.3243,-3.3241,-3.324,-3.3211,-3.3199,-3.319,-3.3179,-3.313,-3.3113,-3.312,-3.3096,-3.3118,-3.3117,-3.3112,-3.2996,-3.299,-3.3138,-3.3138,-3.3138,-3.3138,-3.3138,-3.3138,-3.3459,-3.3477,-3.3445,-3.345,-3.3422,-3.342,-3.3409,-3.3391,-3.3369,-3.3362,-3.3352,-3.3321,-3.3285,-3.3265,-3.3252,-3.3238,-3.3236,-3.3266,-3.3245,-3.3137,-3.312,-3.3104,-3.3098,-3.3266,-3.3266,-3.336,-3.3361,-3.3362]},{"header":{"parameterUnit":"m.s-1","parameterCategory":1,"la1":30.2991,"la2":30.254,"lo1":-89.0895,"lo2":-89.0444,"dy":0.0017,"dx":0.0017,"nx":28,"ny":28,"refTime":"2023-09-26T21:00:00:Z","depth":0,"parameterNumber":3,"parameterNumberName":"V-component_of_WINDS"},"data":[0,0,0,0,0,0,0,0,0,0,0,0,0,0,0,0,0,0,0,0,0,0,0,0,0,0,0,0,0,0,0,0,0,0,0,0,0,0,0,0,0,0,0,0,0,0,0,0,0,0,0,0,0,0,0,0,0,0,-3.0781,-3.0782,0,-3.0829,-3.083,-3.083,-3.0797,-3.0796,-3.0794,-3.0793,-3.0841,-3.0843,-3.0846,0,0,0,0,0,0,0,0,0,0,0,0,0,-3.0658,-3.0661,-3.0781,-3.0782,-3.0782,-3.0829,-3.083,-3.0831,-3.0797,-3.0796,-3.0794,-3.0792,-3.084,-3.0843,-3.0846,0,0,0,0,0,0,0,0,0,0,0,0,0,-3.071,-3.0662,-3.0781,-3.0771,-3.0771,-3.0829,-3.083,-3.0831,-3.0798,-3.0796,-3.0793,-3.0791,-3.0839,-3.0843,-3.0847,-3.0917,0,0,-3.0859,-3.0861,0,0,0,0,0,0,0,0,-3.0707,-3.0714,-3.0772,-3.0772,-3.0772,-3.0805,-3.0804,-3.0859,-3.0798,-3.0788,-3.0793,-3.079,-3.0831,-3.0835,-3.0849,-3.0919,-3.0921,-3.0859,-3.0862,-3.0864,-3.0865,0,0,0,0,0,0,0,-3.0703,-3.0712,-3.08,-3.0773,-3.0773,-3.0764,-3.0769,-3.0815,-3.0821,-3.0788,-3.0786,-3.0792,-3.083,-3.0845,-3.085,-3.0922,-3.0859,-3.0863,-3.0865,-3.0867,-3.105,-3.1053,0,0,0,0,0,0,-3.0701,-3.0709,-3.0799,-3.0802,-3.0733,-3.0768,-3.0774,-3.0797,-3.0821,-3.0822,-3.0794,-3.0791,-3.084,-3.0845,-3.0852,-3.0935,-3.0864,-3.0867,-3.087,-3.1048,-3.1051,-3.1054,0,0,0,0,0,0,-3.0698,-3.0709,-3.0797,-3.0755,-3.0765,-3.0773,-3.0799,-3.0799,-3.0814,-3.0825,-3.0826,-3.0809,-3.0838,-3.0846,-3.0901,-3.0936,-3.0869,-3.0873,-3.1045,-3.1049,-3.1052,-3.1103,0,0,0,0,0,0,-3.0695,-3.0708,-3.0736,-3.0756,-3.0768,-3.0846,-3.0801,-3.0801,-3.0821,-3.0817,-3.0839,-3.084,-3.0837,-3.0895,-3.0905,-3.0941,-3.0876,-3.1042,-3.1047,-3.1051,-3.1098,-3.1108,-3.1116,0,0,0,0,0,-3.0691,-3.0748,-3.0737,-3.0748,-3.0802,-3.0848,-3.0855,-3.085,-3.0824,-3.0851,-3.0858,-3.084,-3.093,-3.0901,-3.0911,-3.0949,-3.104,-3.1045,-3.1051,-3.1094,-3.1106,-3.1116,0,0,0,0,0,0,-3.0731,-3.075,-3.0739,-3.0804,-3.0825,-3.0842,-3.0876,-3.0863,-3.0891,-3.0886,-3.0878,-3.0883,-3.0941,-3.095,-3.0917,-3.1018,-3.0981,-3.0989,-3.101,-3.1021,-3.103,-3.1027,-3.0879,0,0,0,0,0,-3.0748,-3.0784,-3.0798,-3.0854,-3.0865,-3.0869,-3.0889,-3.0884,-3.0904,-3.0913,-3.0924,-3.0944,-3.0978,-3.1,-3.1031,-3.1098,-3.1103,-3.1129,-3.1138,-3.1146,-3.1153,-3.119,-3.1202,-3.1072,-3.1072,-3.1072,0,0,-3.0782,-3.0797,-3.082,-3.0863,-3.0878,-3.0916,-3.0877,-3.0918,-3.0946,-3.0919,-3.0972,-3.098,-3.1003,-3.1064,-3.1092,-3.1074,-3.119,-3.1153,-3.1159,-3.1162,-3.1197,-3.1209,-3.122,-3.1076,-3.1075,-3.1074,0,0,-3.0865,-3.0879,-3.0928,-3.0944,-3.0968,-3.097,-3.0981,-3.1001,-3.1006,-3.1059,-3.104,-3.1071,-3.1129,-3.1146,-3.1162,-3.1249,-3.1234,-3.1259,-3.1307,-3.1343,-3.1353,-3.1362,-3.1394,-3.1406,-3.1266,-3.1267,-3.1267,0,-3.0905,-3.0961,-3.0954,-3.0997,-3.1017,-3.0994,-3.1043,-3.1059,-3.1091,-3.1105,-3.1084,-3.1155,-3.1169,-3.1234,-3.1255,-3.1269,-3.1282,-3.1258,-3.1352,-3.1361,-3.137,-3.14,-3.1412,-3.127,-3.1269,-3.1269,-3.1269,0,-3.1009,-3.1048,-3.1084,-3.1117,-3.114,-3.1186,-3.1186,-3.1209,-3.1202,-3.1205,-3.1259,-3.1274,-3.1308,-3.1323,-3.1315,-3.1387,-3.1375,-3.1353,-3.1316,-3.1385,-3.1414,-3.1425,-3.1274,-3.1273,-3.1272,-3.1271,0,0,-3.112,-3.1148,-3.1161,-3.1176,-3.12,-3.123,-3.1274,-3.1307,-3.1328,-3.1351,-3.1388,-3.1436,-3.1416,-3.1435,-3.1428,-3.146,-3.1529,-3.1434,-3.1434,-3.1452,-3.1609,-3.1626,-3.164,-3.1517,-3.152,-3.1521,-3.1607,0,-3.1204,-3.1283,-3.1278,-3.1351,-3.1387,-3.1365,-3.1404,-3.1422,-3.1427,-3.1457,-3.1462,-3.1497,-3.1467,-3.1478,-3.1508,-3.1514,-3.156,-3.1507,-3.1552,-3.1554,-3.1549,-3.1654,-3.1673,-3.1753,-3.1618,-3.162,-3.1621,0,-3.1314,-3.1341,-3.1418,-3.1437,-3.1452,-3.1487,-3.1517,-3.1546,-3.1566,-3.1567,-3.1587,-3.1576,-3.162,-3.158,-3.1641,-3.1605,-3.1622,-3.1628,-3.1631,-3.1636,-3.1593,-3.1663,-3.1779,-3.1791,-3.1639,-3.1637,-3.1636,0,-3.1388,-3.1444,-3.1497,-3.151,-3.1533,-3.1558,-3.1568,-3.1586,-3.1607,-3.1632,-3.1645,-3.1676,-3.1692,-3.1716,-3.1712,-3.1684,-3.1774,-3.1734,-3.1776,-3.1776,-3.1797,-3.1796,-3.1918,-3.1806,-3.1806,-3.1806,-3.1806,0,-3.1484,-3.1532,-3.1531,-3.1564,-3.1617,-3.161,-3.1663,-3.167,-3.1686,-3.172,-3.1702,-3.1734,-3.1727,-3.1758,-3.1755,-3.1806,-3.1813,-3.1815,-3.1814,-3.1818,-3.1818,-3.183,-3.1825,-3.1809,-3.1808,-3.1808,-3.1807,0,-3.1577,-3.1578,-3.1635,-3.1652,-3.1657,-3.1695,-3.1709,-3.174,-3.1742,-3.1785,-3.1795,-3.1798,-3.1834,-3.1833,-3.1873,-3.1871,-3.1934,-3.1926,-3.1928,-3.1926,-3.1968,-3.1965,-3.2104,-3.2122,-3.1997,-3.1998,-3.1999,0,-3.1639,-3.1676,-3.1696,-3.1718,-3.173,-3.1765,-3.1786,-3.1779,-3.1801,-3.1827,-3.1855,-3.1889,-3.1916,-3.1974,-3.198,-3.2011,-3.2004,-3.205,-3.2008,-3.2011,-3.2006,-3.2004,-3.2008,-3.2059,-3.206,-3.2062,-3.2063,0,-3.1749,-3.1748,-3.1778,-3.181,-3.1835,-3.1859,-3.1881,-3.1899,-3.1895,-3.192,-3.1957,-3.1978,-3.2019,-3.2054,-3.2083,-3.2093,-3.2077,-3.2075,-3.2087,-3.2092,-3.2092,-3.2093,-3.1951,-3.2073,-3.2072,-3.2071,-3.207,-3.207,-3.1829,-3.1861,-3.188,-3.1915,-3.1931,-3.1952,-3.1982,-3.1988,-3.2018,-3.2052,-3.2046,-3.2087,-3.2105,-3.2143,-3.2155,-3.2187,-3.2171,-3.2187,-3.2191,-3.2196,-3.2201,-3.2085,-3.2192,-3.2192,-3.2192,-3.2191,-3.2191,0,-3.1939,-3.1951,-3.1983,-3.2014,-3.2041,-3.2024,-3.2047,-3.2071,-3.2108,-3.2126,-3.2153,-3.2195,-3.2228,-3.2236,-3.2267,-3.2291,-3.2285,-3.23,-3.2299,-3.2301,-3.2214,-3.2201,-3.2304,-3.2304,-3.2304,-3.2304,-3.2304,-3.2304,-3.2,-3.2053,-3.2053,-3.2114,-3.2124,-3.2165,-3.218,-3.2198,-3.2213,-3.2261,-3.2289,-3.2294,-3.2308,-3.234,-3.2369,-3.237,-3.2383,-3.2401,-3.24,-3.2319,-3.2307,-3.2297,-3.2285,-3.2404,-3.2404,-3.2485,-3.2486,-3.2486]}]]